Theta_e
327 338 342 345 347 343 342 343 336 332 328 321 322 324 318 314 317 320 306 305 305 305 305 307 308 302 301 306 312 313 313 313 313 313 313 313 315 313 314 312 313 314 314 315 317 317 317 316 316
339 340 340 342 342 337 342 337 337 329 321 319 318 319 317 310 308 307 307 304 304 303 303 307 302 299 302 304 311 311 311 312 313 312 312 312 311 311 310 310 311 312 313 314 313 314 316 316 316
335 337 338 339 334 336 337 336 329 321 319 319 316 314 313 308 306 306 304 304 303 302 302 302 299 301 301 305 310 310 312 312 312 312 311 311 310 306 308 309 310 310 311 312 312 312 312 313 314
334 331 331 334 332 335 335 331 323 321 317 315 316 311 306 304 305 305 303 303 303 302 301 301 300 298 298 298 308 308 310 310 309 309 307 307 302 300 300 306 307 307 308 309 309 309 310 311 313
332 332 332 330 331 330 329 326 324 322 319 316 315 312 307 304 304 304 303 302 302 302 301 300 298 297 297 298 302 307 309 306 303 300 298 298 297 297 297 298 298 301 306 306 305 307 308 308 309
333 330 329 328 330 326 325 323 322 320 317 313 314 311 307 304 304 303 302 302 301 301 301 300 300 297 298 298 299 300 300 299 298 297 297 297 297 298 297 297 298 300 302 302 304 304 304 305 306
333 331 330 327 328 327 323 319 320 319 316 311 310 313 306 304 303 302 301 301 301 301 300 300 300 300 300 299 299 299 298 297 297 297 297 297 297 298 298 297 297 299 300 302 301 301 302 301 300
329 328 327 327 327 328 319 316 314 316 311 307 307 312 308 304 302 301 301 302 302 301 300 300 300 300 300 301 299 298 297 296 296 296 296 297 298 298 297 297 297 297 298 300 300 301 300 300 298
329 329 327 328 325 324 316 315 310 309 309 306 306 307 305 303 301 302 302 303 303 301 301 300 300 300 300 300 300 299 298 297 297 297 297 298 299 298 297 298 297 298 299 299 300 301 301 301 301
327 327 329 322 321 322 316 317 311 311 309 306 304 303 302 302 302 302 302 303 303 301 301 300 300 300 300 300 300 300 299 299 299 298 297 297 298 299 299 298 299 299 299 300 300 301 301 300 300
321 325 321 317 316 317 314 313 311 313 313 310 306 303 303 302 302 302 302 302 302 301 301 300 300 300 300 300 300 300 299 299 299 299 297 297 298 299 298 298 298 298 299 299 300 300 300 300 300
321 316 317 314 312 314 314 311 312 312 310 308 306 304 303 302 302 301 301 302 302 301 300 300 299 300 300 300 300 299 299 299 299 298 298 298 298 298 298 298 298 299 299 299 299 299 299 299 299
319 314 312 311 311 312 311 312 312 308 306 306 304 303 303 302 302 301 301 301 301 300 300 299 300 300 300 300 300 299 299 299 298 298 298 297 297 297 297 298 298 299 299 298 297 298 298 298 298
315 314 312 311 311 310 312 310 309 307 305 304 302 303 303 303 302 301 301 301 302 300 299 299 300 300 299 300 299 299 299 297 298 298 297 297 297 296 297 298 298 298 297 297 296 297 297 297 298
314 315 313 312 312 311 310 311 310 307 304 304 303 303 303 302 301 301 300 301 301 300 299 299 299 299 300 299 299 299 297 297 298 298 297 297 296 297 298 298 298 297 296 297 296 297 297 297 297
316 317 320 314 312 309 309 318 311 306 305 305 304 304 303 302 302 301 300 300 301 300 299 299 299 300 299 299 299 298 297 298 298 297 297 296 296 297 297 298 298 297 297 297 297 297 297 297 297
318 320 319 317 312 312 311 316 310 306 305 306 305 304 304 303 302 301 300 300 301 299 299 299 300 300 299 299 298 298 298 298 298 297 297 296 296 296 297 298 297 297 297 297 297 298 297 297 297
318 318 317 317 314 311 313 313 311 307 306 307 306 305 304 304 303 302 301 300 300 300 298 299 300 300 299 299 298 298 298 298 298 297 297 296 296 296 296 297 297 296 296 297 297 298 298 298 298
315 316 316 316 313 312 314 314 314 310 306 307 307 305 304 304 303 301 301 300 300 299 299 299 300 300 299 299 298 298 298 298 298 297 297 296 295 296 296 296 296 296 296 296 296 297 298 297 298
315 316 317 314 311 310 314 314 314 313 309 307 307 306 305 304 303 302 301 300 301 299 299 299 300 299 298 297 296 296 297 297 297 297 297 296 296 296 296 296 296 296 296 296 295 295 296 296 297
316 315 315 313 312 312 312 316 314 313 311 308 307 307 306 304 303 303 301 300 301 300 299 299 299 298 298 295 297 298 298 299 298 298 297 297 296 296 296 296 296 296 296 295 294 295 295 296 296
316 311 311 312 314 319 313 320 317 313 310 309 307 307 306 304 303 303 302 301 301 300 299 298 299 298 297 295 296 297 298 299 298 298 297 297 296 296 297 297 297 296 296 296 295 294 294 294 294
313 310 311 313 314 316 317 318 317 314 313 312 309 307 306 305 303 302 302 301 301 300 299 299 299 297 296 295 295 296 298 298 298 298 297 297 297 296 297 297 296 296 296 296 296 295 295 294 294
310 312 313 314 316 321 319 316 319 316 316 314 311 308 306 305 303 302 302 301 301 299 298 298 299 298 296 295 296 296 296 297 297 298 298 297 297 297 296 296 297 297 296 296 296 296 295 295 294
310 315 322 325 324 323 314 315 319 316 314 313 311 308 306 305 303 302 301 301 301 300 298 298 299 298 297 295 296 296 296 296 297 297 298 297 297 297 296 295 296 297 297 296 296 296 296 295 294
313 314 318 321 322 320 312 318 320 315 311 309 308 308 306 305 303 302 301 301 301 300 299 299 299 299 297 296 296 296 296 296 296 297 296 296 297 297 296 295 295 297 296 297 296 296 295 295 295
313 315 312 316 316 316 320 319 313 309 309 307 307 305 306 304 303 302 301 301 301 301 299 299 299 299 298 296 296 296 296 296 296 296 295 296 296 296 296 295 296 296 297 296 297 297 296 295 295
309 309 316 317 325 322 320 319 319 314 312 310 308 306 305 304 303 301 301 301 301 301 300 299 299 299 297 296 296 296 296 296 296 296 295 296 296 295 296 296 296 295 296 297 297 296 296 295 295
310 312 311 313 315 320 320 320 317 318 316 314 311 308 306 305 303 302 301 301 301 300 300 299 299 298 297 296 296 296 296 296 296 295 295 296 295 295 295 295 294 295 295 296 297 297 297 295 295
308 312 313 317 322 315 318 320 314 316 315 314 313 309 306 305 303 302 301 301 301 300 299 299 298 299 297 296 296 296 296 296 295 295 296 295 294 294 295 294 294 294 294 295 297 297 297 295 295
Wind_Speed
3 2 3 3 4 7 6 6 6 4 4 7 8 10 17 16 7 4 7 5 5 6 8 10 16 21 22 19 16 14 12 11 11 11 11 11 14 15 16 17 16 16 16 17 18 17 17 15 16
3 3 2 5 7 8 7 6 7 7 10 8 9 5 8 8 13 11 5 4 5 7 9 10 18 21 18 16 14 15 14 12 10 9 12 11 13 15 15 15 16 15 16 16 16 17 18 17 15
5 5 6 4 7 6 6 7 9 12 7 3 5 11 6 6 7 5 5 5 5 8 10 14 18 17 16 13 13 12 12 12 12 11 12 14 14 15 15 15 14 14 16 17 17 17 17 18 17
1 2 4 5 8 6 5 8 12 10 6 4 8 9 9 5 4 5 5 4 6 8 10 14 15 15 13 12 12 11 11 12 12 13 13 13 14 15 15 14 15 14 16 16 16 16 17 18 18
2 5 7 5 2 2 5 9 7 4 6 6 2 7 8 7 9 7 5 4 6 8 9 10 13 12 10 9 10 11 11 11 14 15 15 16 17 17 16 17 17 16 16 17 18 18 17 17 17
7 5 8 7 8 4 5 7 5 5 6 5 8 8 6 8 6 5 4 5 6 7 8 9 13 14 11 10 10 9 11 13 14 15 15 16 16 17 18 19 18 18 18 19 18 18 19 18 18
8 6 7 5 4 4 5 5 3 5 6 7 3 2 7 7 6 4 4 5 6 7 8 8 9 10 14 12 12 12 12 12 12 12 14 16 17 19 21 22 22 21 20 18 20 20 20 21 22
5 4 3 1 3 4 6 5 4 2 5 4 2 3 7 10 7 3 3 4 5 7 7 8 9 9 9 8 13 12 12 12 13 14 15 18 18 19 21 22 24 24 22 20 20 20 21 22 22
3 5 3 3 2 8 10 5 3 4 9 5 3 6 13 12 6 3 3 4 5 6 7 8 8 9 10 9 12 12 13 14 14 14 16 14 13 15 19 20 23 22 22 22 19 21 20 21 17
4 4 7 6 5 4 9 4 7 7 8 7 10 12 12 9 4 2 3 3 5 5 6 7 7 9 9 8 10 10 10 11 11 13 15 15 15 15 17 17 18 19 19 19 19 20 20 16 17
5 5 4 5 5 6 7 7 5 5 6 7 11 13 11 8 4 3 3 4 4 4 5 7 8 9 9 9 10 9 9 11 11 14 16 16 15 15 16 17 17 18 19 19 20 19 17 18 18
3 5 3 4 5 5 7 7 5 2 4 5 12 13 11 7 3 3 2 2 3 5 6 6 8 8 9 9 9 9 10 12 12 13 14 16 15 15 16 16 17 18 18 19 18 18 19 19 17
5 6 6 7 6 6 6 4 2 5 6 10 13 12 10 7 3 2 1 2 3 4 5 6 6 8 8 8 9 9 9 10 11 11 13 15 15 15 16 16 16 16 16 17 19 17 19 19 18
5 8 9 6 6 5 4 3 4 7 11 13 13 11 9 7 4 1 1 1 2 4 4 4 5 8 9 9 10 10 9 10 9 10 13 14 15 15 15 14 14 15 15 15 18 16 17 19 18
11 7 6 6 6 2 3 7 8 12 14 13 12 11 10 8 5 2 1 1 1 3 3 4 5 7 8 8 9 8 8 9 9 10 12 14 14 15 14 13 14 16 17 19 20 19 20 21 20
5 5 5 8 7 3 4 4 8 13 15 13 12 12 11 9 7 4 3 3 2 2 3 3 5 5 7 8 8 8 8 8 9 10 12 15 14 15 14 14 15 17 20 19 20 20 21 22 20
6 5 1 6 8 3 8 4 10 13 14 13 13 13 12 10 10 7 5 4 4 3 3 3 4 6 8 8 7 7 7 8 8 10 12 15 14 15 14 13 15 19 17 18 18 17 20 22 21
7 6 0 4 6 7 9 11 9 13 15 14 14 14 13 13 11 9 7 6 4 4 3 3 4 5 8 7 7 6 6 7 8 10 12 14 14 14 14 13 14 19 18 18 18 18 19 19 20
5 5 6 3 2 6 11 11 7 14 15 15 15 15 15 14 11 10 8 6 5 4 3 3 3 5 6 6 6 5 6 6 7 10 12 13 14 15 14 14 15 16 19 20 16 15 19 21 19
4 6 3 3 1 4 8 11 10 12 17 17 17 17 17 15 14 12 10 8 6 5 5 4 3 5 6 5 6 5 5 6 8 10 10 12 13 13 13 15 14 15 16 17 21 20 20 21 19
5 6 4 4 4 10 9 8 8 9 13 15 19 18 18 18 17 13 12 9 7 5 5 4 4 4 4 6 5 6 6 7 7 9 10 12 12 13 14 14 15 15 16 16 20 18 17 21 19
9 3 2 4 4 3 3 2 10 11 11 15 18 21 20 19 17 14 12 10 9 7 8 6 6 4 4 5 3 4 5 6 7 8 10 10 11 11 12 14 14 14 14 15 17 18 18 18 20
5 3 5 5 7 7 7 4 8 8 10 13 19 20 21 20 19 17 15 13 11 11 9 7 7 6 5 4 4 3 4 5 6 7 10 10 10 10 11 13 13 13 14 14 16 16 17 19 18
1 6 7 4 5 5 7 3 8 7 6 7 14 18 20 20 19 17 15 14 13 12 11 10 8 6 7 5 5 5 5 6 6 7 8 9 9 9 10 13 12 12 14 14 15 16 16 17 17
4 7 3 4 4 3 3 4 4 9 7 6 11 16 19 20 20 19 17 16 13 13 12 11 9 8 8 6 6 6 6 7 7 8 8 10 9 9 11 13 13 15 15 16 16 15 16 16 17
2 4 4 5 3 5 3 5 3 6 7 7 7 11 17 20 20 20 18 17 15 15 14 12 11 10 9 8 7 7 7 6 7 8 10 10 10 11 14 14 13 13 16 16 14 15 16 16 17
3 2 3 5 2 4 4 4 6 6 8 10 12 12 17 21 21 20 19 19 17 15 15 14 13 11 10 9 8 8 7 7 8 9 11 10 12 12 13 14 14 13 13 17 16 13 16 16 16
3 3 3 4 4 4 4 5 3 10 13 12 14 18 17 20 22 21 20 19 17 16 15 15 14 13 12 11 10 8 8 8 9 10 10 11 12 13 13 14 14 14 12 15 18 14 15 17 16
4 3 4 3 3 4 5 0 5 6 10 12 16 18 20 22 23 22 21 20 19 18 18 17 17 15 13 12 10 10 9 8 9 10 10 11 13 13 13 14 15 14 14 12 18 16 14 17 16
4 3 4 2 2 2 3 7 0 1 5 8 11 15 18 21 23 22 21 21 20 20 19 19 17 15 14 13 12 10 9 9 9 9 10 11 12 12 13 14 15 15 15 13 14 17 14 16 16
Wind_Direction
208 113 203 252 248 231 231 80 97 109 104 65 60 51 81 40 4 38 125 87 49 15 2 351 326 330 332 341 1 360 357 350 3 346 352 0 359 355 353 355 352 353 348 356 353 351 350 349 344
165 188 218 281 266 276 84 122 92 63 107 99 68 69 38 73 69 105 102 63 35 11 1 340 328 329 334 340 355 5 8 10 5 1 352 358 344 346 350 349 357 354 351 349 345 342 344 346 340
153 179 255 251 270 351 15 47 105 111 106 87 98 57 57 87 65 104 109 62 21 3 0 321 327 328 334 356 357 1 3 4 5 7 1 358 349 354 352 357 352 350 346 348 341 342 334 334 334
305 294 238 248 298 52 30 102 124 124 98 68 107 80 85 63 102 131 101 43 10 6 359 335 342 341 343 346 356 3 0 357 359 355 353 352 351 353 351 348 346 346 342 338 334 336 335 331 328
272 258 258 258 41 86 65 115 143 113 96 105 351 94 98 102 107 101 73 41 16 353 4 351 352 352 352 351 356 9 3 350 345 346 346 348 347 347 347 343 340 340 339 335 333 333 326 321 321
261 270 257 269 95 103 103 123 140 98 106 95 93 105 93 136 115 95 67 19 17 13 12 9 356 358 3 358 357 353 347 345 345 345 346 346 346 345 344 343 341 340 334 334 334 327 324 321 319
273 279 304 318 82 165 134 129 166 117 123 65 82 67 134 148 134 101 44 28 17 15 15 11 10 8 0 357 359 353 349 349 349 350 349 347 343 345 344 342 340 341 339 338 331 331 326 326 322
281 266 287 344 191 99 119 116 97 26 88 111 56 146 164 161 136 101 48 28 18 14 14 10 9 4 5 356 354 353 355 355 354 354 355 352 358 340 340 335 334 335 334 336 333 333 330 328 327
276 256 275 53 298 99 149 140 101 112 118 89 69 95 129 141 128 71 35 14 7 7 9 4 4 0 1 360 346 360 354 359 0 358 348 356 342 335 340 336 337 337 335 336 336 333 331 333 339
296 276 39 26 42 119 165 174 146 149 140 116 117 119 129 126 110 51 27 9 3 1 3 359 360 3 3 360 353 349 354 349 350 348 345 346 342 337 340 337 340 337 337 337 334 335 336 333 327
12 5 99 49 59 124 137 138 151 171 204 170 166 152 145 135 95 54 32 18 10 5 356 355 359 4 360 0 359 349 349 344 347 344 345 349 344 342 341 340 338 339 338 337 336 336 334 329 326
151 60 49 113 96 132 156 135 146 197 76 147 160 156 149 140 118 56 44 6 1 354 355 353 357 5 359 360 351 349 348 352 344 347 348 352 347 344 343 342 341 341 339 334 334 333 332 332 326
79 114 91 105 113 124 140 149 122 146 139 144 148 155 157 160 130 76 79 24 17 351 352 349 357 358 358 358 350 352 349 346 352 351 348 353 348 346 344 343 345 342 337 334 336 338 336 332 329
109 121 123 133 138 145 178 172 187 173 155 153 157 163 173 178 169 126 34 336 350 345 336 350 352 345 358 356 351 355 348 353 353 351 350 351 350 347 345 345 343 345 347 336 336 340 333 335 332
137 128 148 170 174 137 240 207 225 164 172 170 176 176 183 189 191 214 242 253 307 316 340 335 348 352 353 353 349 354 344 359 353 352 353 349 352 350 351 345 344 336 346 352 359 351 339 332 334
223 216 221 145 182 156 225 92 142 173 180 185 186 192 194 202 209 223 228 228 277 310 310 329 341 346 344 345 352 353 350 359 357 355 354 351 354 354 352 347 341 334 341 343 349 347 341 341 334
198 314 275 160 204 150 226 329 151 185 195 196 196 204 201 207 214 219 227 233 253 288 288 298 327 340 345 348 354 349 355 357 358 358 354 357 356 355 354 346 339 333 337 344 340 337 343 338 335
343 308 264 312 155 224 238 261 167 201 207 210 208 212 209 215 222 220 224 230 256 273 279 318 322 341 342 355 354 351 351 356 358 355 355 359 356 354 353 346 344 335 347 339 336 335 334 333 331
318 303 296 98 112 274 252 258 242 198 214 217 214 216 216 219 217 213 219 230 248 277 282 284 305 325 350 350 346 351 348 350 346 352 354 354 358 357 356 349 344 342 340 336 335 330 329 331 340
284 292 310 111 164 254 282 265 244 211 212 217 219 219 220 217 213 216 221 223 238 237 260 282 309 330 333 347 338 341 337 334 354 344 349 353 356 355 355 353 350 347 344 340 341 343 337 327 334
247 289 332 318 304 244 277 253 196 216 212 214 223 225 222 218 216 218 221 226 230 236 243 252 270 300 321 332 347 344 332 350 331 339 343 349 351 354 354 354 350 349 347 343 339 345 338 329 331
290 70 296 293 291 344 217 341 193 171 208 215 220 219 218 215 215 216 218 222 225 224 231 243 254 275 293 312 337 323 324 329 325 335 337 346 347 349 352 353 349 344 342 342 340 339 338 335 330
11 302 280 281 269 298 191 256 117 169 219 212 215 213 213 210 209 211 213 213 216 217 227 232 249 268 275 292 305 324 305 308 320 328 334 338 340 339 346 348 348 349 346 339 337 335 336 333 332
23 267 245 250 252 232 125 271 165 183 209 167 189 204 204 206 206 208 211 209 211 221 226 235 239 253 264 278 289 303 312 313 320 323 331 327 332 332 332 341 341 341 342 342 339 333 330 331 327
238 271 239 202 211 12 125 255 304 138 148 167 182 195 199 201 202 204 207 210 212 215 225 230 236 242 251 264 276 289 302 311 319 319 318 328 324 324 324 335 338 342 329 335 343 333 332 331 332
297 319 308 298 314 342 168 229 137 132 143 163 170 192 196 200 203 206 209 211 214 217 225 228 230 239 248 251 264 278 292 309 306 307 315 322 322 320 323 328 329 328 338 331 337 334 334 333 332
111 249 2 295 231 267 220 209 155 175 184 193 202 198 201 201 203 206 209 211 214 218 220 224 229 235 244 250 262 273 287 298 302 306 315 319 318 317 317 327 323 324 327 343 332 333 332 332 334
268 348 247 191 303 285 216 276 269 202 218 199 209 210 208 205 204 206 210 211 212 215 218 224 229 234 241 245 253 264 275 287 297 305 311 312 319 319 321 322 324 322 318 320 343 338 333 333 335
164 199 215 289 265 302 311 242 15 176 195 201 209 211 206 205 207 208 209 210 212 214 215 221 227 231 237 245 248 259 272 285 295 302 308 313 313 321 322 324 325 326 320 318 331 338 332 332 333
301 292 243 254 163 237 283 275 263 63 181 201 200 204 207 206 205 208 210 209 210 214 216 221 225 229 235 240 245 256 269 282 296 302 301 308 315 320 322 326 329 327 326 321 321 335 333 331 329